Home > Weather > Bozeman > Past weeks

Flag for USA Weather for the Past 2 Weeks in Bozeman, Montana, USA

Now
49 °F

Passing clouds.


Feels Like: 47 °F
Forecast: 50 / 58 °F
Wind: 5 mph from West

Location: Gallatin Field

Current Time: May 6, 2016 at 8:06:53 AM

Latest Report: May 6, 2016 at 6:56 AM


Visibility: 10 mi

Pressure: 30.01 "Hg (25.13 "Hg at 1469m altitude)

Humidity: 77%

Dew Point: 42 °F

Location of BozemanLocation

Historic Weather in Bozeman — Graph

°F

Bozeman Temperature Yesterday

Maximum temperature yesterday: 82 °F (at 3:56 PM)
Minimum temperature yesterday: 44 °F (at 6:56 AM)
Average temperature yesterday: 65 °F

High & Low Weather Summary for the Past Weeks

 TemperatureHumidityPressure
High82 °F (May 5, 3:56 PM)96% (Apr 28, 4:56 AM)30.34 "Hg (Apr 28, 4:56 AM)
Low28 °F (May 2, 5:56 AM)14% (Apr 22, 1:56 PM)29.57 "Hg (Apr 23, 1:56 AM)
Average50 °F60%29.95 "Hg
* Reported Apr 21 6:56 AM — May 6 6:56 AM, Bozeman, Weather by CustomWeather, © 2016

Note: Actual official high and low records may vary slightly from our data, if they occured in-between our weather recording intervals... More about our weather records

Advertising

Bozeman Weather History for the Previous 24 Hours

Scroll right to see more
 ConditionsComfort  
Time TempWeatherWind HumidityBarometerVisibility
6:56 AM
Fri, May 6
49 °FPassing clouds.5 mph77%30.01 "Hg10 mi
5:56 AM47 °FClear.No wind80%29.99 "Hg10 mi
4:56 AM46 °FClear.3 mph79%29.96 "Hg10 mi
3:56 AM48 °FClear.9 mph77%29.92 "Hg10 mi
2:56 AM52 °FClear.7 mph66%29.87 "Hg10 mi
1:56 AM54 °FClear.9 mph64%29.85 "Hg10 mi
12:56 AM61 °FPassing clouds.6 mph50%29.81 "Hg10 mi
11:56 PM
Thu, May 5
61 °FClear.7 mph48%29.80 "Hg10 mi
10:56 PM62 °FClear.10 mph43%29.79 "Hg10 mi
9:56 PM66 °FClear.6 mph39%29.78 "Hg10 mi
8:56 PM70 °FSunny.No wind37%29.76 "Hg10 mi
7:56 PM74 °FSunny.6 mph29%29.75 "Hg10 mi
6:56 PM76 °FSunny.5 mph33%29.77 "Hg10 mi
5:56 PM77 °FSunny.5 mph32%29.75 "Hg10 mi
4:56 PM79 °FSunny.No wind19%29.75 "Hg10 mi
3:56 PM82 °FSunny.5 mph18%29.76 "Hg10 mi
2:56 PM80 °FSunny.5 mph20%29.80 "Hg10 mi
1:56 PM78 °FSunny.8 mph23%29.81 "Hg10 mi
12:56 PM76 °FSunny.7 mph23%29.83 "Hg10 mi
11:56 AM77 °FSunny.5 mph23%29.85 "Hg10 mi
10:56 AM71 °FSunny.3 mph35%29.88 "Hg10 mi
9:56 AM65 °FSunny.No wind47%29.90 "Hg10 mi
8:56 AM60 °FSunny.5 mph47%29.89 "Hg10 mi
Weather by CustomWeather, © 2016

See weather overviewHow to use our weather pages